GW2327 Weather Reports


time (UTC)temp
C
wind
direction
speed
KPH
gust
KPH
rain 1hr
cm
rain 24hr
cm
rain mn
cm
humidity
%
barometer
mb
20260506194539 14 188 1.6 4.8 0.00 0.18 0.18 91 1006.9
20260506193040 14 263 1.6 8.0 0.00 0.18 0.18 91 1007.1
20260506191538 14 159 1.6 6.4 0.05 0.18 0.18 90 1007.2
20260506190036 14 0 1.6 6.4 0.08 0.18 0.18 91 1007.4
20260506184535 14 202 3.2 11.3 0.10 0.18 0.18 90 1007.7
20260506183041 13 0 0.0 8.0 0.13 0.18 0.18 90 1007.7
20260506181542 13 181 1.6 6.4 0.10 0.13 0.13 90 1008.0
20260506180048 13 175 0.0 8.0 0.08 0.08 0.08 89 1008.0
20260506174538 14 0 0.0 6.4 0.08 0.08 0.08 89 1008.0
20260506173037 14 136 0.0 8.0 0.05 0.05 0.05 89 1008.2
20260506171547 14 172 0.0 8.0 0.03 0.03 0.03 88 1008.7
20260506170042 14 191 1.6 8.0 0.00 0.00 0.00 87 1009.1
20260506164539 15 165 1.6 6.4 0.00 0.00 0.00 85 1009.2
20260506163046 16 192 1.6 6.4 0.00 0.00 0.00 82 1009.0
20260506161549 16 107 1.6 8.0 0.00 0.00 0.00 80 1009.2
20260506160034 17 0 1.6 8.0 0.00 0.00 0.00 79 1009.4
20260506154544 17 207 1.6 8.0 0.00 0.00 0.00 80 1009.4
20260506153043 17 184 3.2 9.7 0.00 0.00 0.00 78 1009.8
20260506151540 17 175 3.2 11.3 0.00 0.00 0.00 79 1009.4
20260506150038 17 175 3.2 8.0 0.00 0.00 0.00 78 1009.4
20260506144538 17 212 4.8 12.9 0.00 0.00 0.00 77 1009.3
20260506143036 17 201 3.2 11.3 0.00 0.00 0.00 77 1009.5
20260506141539 18 207 3.2 11.3 0.00 0.00 0.00 77 1009.5
20260506140045 17 196 4.8 9.7 0.00 0.00 0.00 78 1009.6
20260506134606 17 186 3.2 12.9 0.00 0.00 0.00 80 1009.6
20260506133036 17 0 3.2 9.7 0.00 0.00 0.00 81 1009.3
20260506131533 16 194 1.6 9.7 0.00 0.00 0.00 82 1009.5
20260506130041 16 182 3.2 8.0 0.00 0.00 0.00 82 1009.6
20260506124540 16 206 3.2 8.0 0.00 0.00 0.00 83 1009.6
20260506123044 16 30 1.6 8.0 0.00 0.00 0.00 84 1010.0
20260506121538 15 207 1.6 9.7 0.00 0.00 0.00 85 1009.8
20260506120035 15 54 3.2 12.9 0.00 0.00 0.00 86 1009.9
20260506114543 14 0 1.6 6.4 0.00 0.00 0.00 87 1009.8
20260506113042 14 200 1.6 6.4 0.00 0.00 0.00 88 1009.7
20260506111539 13 148 1.6 4.8 0.00 0.00 0.00 88 1009.9
20260506110038 13 100 1.6 12.9 0.00 0.00 0.00 89 1010.1
20260506104533 13 157 1.6 6.4 0.00 0.00 0.00 89 1009.8
20260506103043 12 156 0.0 4.8 0.00 0.00 0.00 90 1009.9
20260506101541 11 103 0.0 1.6 0.00 0.00 0.00 89 1009.8
20260506100039 11 0 0.0 3.2 0.00 0.00 0.00 89 1009.9
20260506094539 12 0 0.0 4.8 0.00 0.00 0.00 88 1009.8
20260506093037 12 0 0.0 6.4 0.00 0.00 0.00 88 1009.8
20260506091534 12 179 0.0 4.8 0.00 0.00 0.00 87 1010.0
20260506090041 12 0 0.0 8.0 0.00 0.00 0.00 87 1009.8
20260506084541 12 0 0.0 4.8 0.00 0.00 0.00 87 1010.0
20260506083042 13 0 0.0 8.0 0.00 0.00 0.00 87 1010.1
20260506081547 13 171 0.0 8.0 0.00 0.00 0.00 87 1010.0
20260506073041 13 167 1.6 6.4 0.00 0.00 0.00 86 1010.2
20260506071543 13 163 0.0 8.0 0.00 0.00 0.00 85 1010.2
20260506061538 13 168 0.0 4.8 0.00 0.00 0.00 84 1010.0
20260506044540 15 159 0.0 6.4 0.00 0.00 0.00 79 1010.3
20260506043040 15 189 3.2 6.4 0.00 0.00 0.00 78 1010.3
20260506041540 15 165 1.6 8.0 0.00 0.00 0.00 77 1010.2
20260506040039 16 194 1.6 9.7 0.00 0.00 0.00 77 1010.4
20260506034534 16 0 1.6 6.4 0.00 0.00 0.00 76 1010.4
20260506033036 16 122 3.2 8.0 0.00 0.00 0.00 74 1010.3
20260506031542 16 192 3.2 6.4 0.00 0.00 0.00 73 1010.2
20260506030040 16 205 3.2 8.0 0.00 0.00 0.00 73 1010.4
20260506024548 16 165 1.6 6.4 0.00 0.00 0.00 72 1010.2
20260506023038 16 173 1.6 8.0 0.00 0.00 0.00 72 1010.2
20260506021533 16 150 1.6 12.9 0.00 0.00 0.00 71 1010.1
20260506020040 16 150 1.6 9.7 0.00 0.00 0.00 72 1010.2
20260506014541 16 171 1.6 8.0 0.00 0.00 0.00 71 1010.0
20260506013039 16 216 1.6 6.4 0.00 0.00 0.00 71 1009.9
20260506011601 16 163 1.6 8.0 0.00 0.00 0.00 71 1009.8
20260506010038 16 190 1.6 8.0 0.00 0.00 0.00 69 1009.6
20260506004542 16 173 3.2 8.0 0.00 0.00 0.00 69 1009.5
20260506003035 17 159 3.2 11.3 0.00 0.00 0.00 68 1009.3
20260506001543 17 177 3.2 9.7 0.00 0.00 0.00 67 1008.9
20260506000106 17 0 1.6 9.7 0.00 0.00 0.00 67 1008.9
20260505234545 17 170 4.8 12.9 0.00 0.00 0.00 67 1008.8
20260505233035 17 173 3.2 12.9 0.00 0.00 0.00 66 1008.7
20260505231537 18 185 6.4 14.5 0.00 0.00 0.00 65 1008.3
20260505230058 18 209 4.8 14.5 0.00 0.00 0.00 65 1008.1
20260505224542 18 186 3.2 11.3 0.00 0.00 0.00 64 1007.9
20260505223040 19 209 1.6 24.1 0.00 0.00 0.00 63 1008.2
20260505221539 19 187 3.2 8.0 0.00 0.00 0.00 65 1008.3
20260505220034 19 173 3.2 12.9 0.00 0.00 0.00 64 1008.2
20260505214533 19 163 3.2 9.7 0.00 0.00 0.00 64 1008.0
20260505213040 19 178 4.8 11.3 0.00 0.00 0.00 64 1008.1
20260505211542 20 123 4.8 14.5 0.00 0.00 0.00 63 1007.8
20260505210037 20 154 1.6 9.7 0.00 0.00 0.00 63 1008.1
20260505204547 20 239 1.6 11.3 0.00 0.00 0.00 61 1008.0
20260505203053 21 215 3.2 11.3 0.00 0.00 0.00 61 1007.8
20260505201543 21 265 4.8 9.7 0.00 0.00 0.00 61 1008.0
20260505200039 21 155 3.2 12.9 0.00 0.00 0.00 62 1008.3